Погода в Монгохто

Россия / Хабаровский край     49°14′16″N   140°13′45″E
темп.,
°C
ветер,
м/с
пор.,
м/с
влажн.,
%
обл.,
%
осадки,
мм/ч
давл.,
гПа
погр.,
м
20 июня, вс
вс2001:00+8зсз1163100 0.0 101111
04:00+7зсз2265100 0.0 101114
07:00+12зсз12539 0.0 1011157
10:00+19юв113898 0.0 1010939
13:00+20вюв433564 0.0 1009954
16:00+20вюв33335 0.0 1009836
19:00+17юв12520 0.0 1009128
22:00+11з11610 0.0 101010
21 июня, пн
пн2101:00+10зсз226384 0.0 101015
04:00+9зсз2265100 0.0 100930
07:00+14зсз235789 0.0 1010122
10:00+22зсз1135100 0.0 1009729
13:00+25юв21295 0.0 10081659
16:00+22юв34373 0.0 1007551
19:00+19всв22555 0.0 100775
22:00+11ссв117240 0.0 100916
22 июня, вт
вт2201:00+10св117349 0.0 100921
04:00+8сз1185100 0.0 101010
07:00+13св016491 0.0 1009113
10:00+17вюв215878 0.0 1009349
13:00+20вюв32525 0.0 1008439
16:00+20юв35496 0.0 1007398
19:00+16в226638 0.0 1007116
22:00+13ссв118097 0.1 100825
23 июня, ср
ср2301:00+12ююз019023 0.3 100811
04:00+13з11906 0.3 100712
07:00+18з127860 0.0 1007115
10:00+25з354754 0.0 10061360
13:00+24ююв2556100 0.4 10051546
16:00+16вюв239696 2.6 100685
19:00+16вюв229899 1.1 100687
22:00+13ююв119757 1.9 100715
24 июня, чт
чт2401:00+11св3599100 2.5 1009253
04:00+11всв23100100 3.7 1009162
07:00+11св1296100 3.1 1011183
10:00+11св1295100 7.8 1012186
13:00+15в346689 0.7 1012743
16:00+14всв446187 0.7 1012656
19:00+11всв1271100 0.0 1013271
22:00+10юз1194100 0.8 101423